Schneifelwetter: Wetterstation Hallschlag, 537 m . NN
Wetterdaten: Dienstag, 13.04.2010
Datum Zeit Temp. A. Feuchte A. Luftdruck Regen Wind Richtung Richtung Sonnenschein Helligkeit T Regen Taupunkt Windchill
13.04.2010 00:10 4,1 C 94 % 1016 hPa 0,0 l/m 22,6 km/h (4 Bft) NO22.5 40 0 min 0 lux 0,00 min 3,2 C -5,3 C
13.04.2010 00:25 4,3 C 94 % 1016 hPa 0,0 l/m 23,7 km/h (4 Bft) N-NO22.5 30 0 min 0 lux 0,00 min 3,4 C -5,5 C
13.04.2010 00:40 4,4 C 93 % 1016 hPa 0,0 l/m 25,7 km/h (4 Bft) N-NO22.5 25 0 min 0 lux 0,00 min 3,4 C -6,0 C
13.04.2010 00:55 4,3 C 93 % 1016 hPa 0,0 l/m 21,1 km/h (4 Bft) N-NO22.5 30 0 min 0 lux 0,00 min 3,3 C -4,5 C
13.04.2010 01:10 4,2 C 94 % 1016 hPa 0,0 l/m 26,1 km/h (4 Bft) NO22.5 40 0 min 0 lux 0,00 min 3,3 C -6,4 C
13.04.2010 01:25 4,3 C 94 % 1015 hPa 0,0 l/m 19,8 km/h (3 Bft) N-NO22.5 30 0 min 0 lux 0,00 min 3,4 C -4,0 C
13.04.2010 01:40 4,4 C 94 % 1015 hPa 0,0 l/m 20,5 km/h (4 Bft) NO22.5 35 0 min 0 lux 0,00 min 3,5 C -4,1 C
13.04.2010 01:55 4,4 C 95 % 1015 hPa 0,0 l/m 24,1 km/h (4 Bft) N-NO22.5 25 0 min 0 lux 0,00 min 3,7 C -5,5 C
13.04.2010 02:10 4,6 C 94 % 1015 hPa 0,0 l/m 31,5 km/h (5 Bft) N-NO22.5 25 0 min 0 lux 0,00 min 3,7 C -7,3 C
13.04.2010 02:25 4,6 C 94 % 1015 hPa 0,0 l/m 24,9 km/h (4 Bft) N-NO22.5 20 0 min 0 lux 0,00 min 3,7 C -5,5 C
13.04.2010 02:40 4,6 C 95 % 1015 hPa 0,3 l/m 27,9 km/h (4 Bft) N-NO67.5 25 0 min 0 lux 15,00 min 3,9 C -6,4 C
13.04.2010 02:55 4,6 C 94 % 1015 hPa 0,0 l/m 29,3 km/h (5 Bft) N-NO22.5 25 0 min 0 lux 0,00 min 3,7 C -6,8 C
13.04.2010 03:10 4,7 C 94 % 1015 hPa 0,0 l/m 30,2 km/h (5 Bft) N-NO22.5 20 0 min 0 lux 0,00 min 3,8 C -6,8 C
13.04.2010 03:25 4,7 C 95 % 1015 hPa 0,0 l/m 32,7 km/h (5 Bft) N-NO22.5 25 0 min 0 lux 0,00 min 4,0 C -7,5 C
13.04.2010 03:40 4,7 C 95 % 1015 hPa 0,0 l/m 23,4 km/h (4 Bft) N-NO22.5 25 0 min 0 lux 0,00 min 4,0 C -4,8 C
13.04.2010 03:55 4,7 C 95 % 1015 hPa 0,0 l/m 25,3 km/h (4 Bft) N-NO22.5 20 0 min 0 lux 0,00 min 4,0 C -5,4 C
13.04.2010 04:10 4,6 C 95 % 1015 hPa 0,0 l/m 26,8 km/h (4 Bft) N-NO22.5 25 0 min 0 lux 0,00 min 3,9 C -6,0 C
13.04.2010 04:25 4,5 C 95 % 1015 hPa 0,0 l/m 30,8 km/h (5 Bft) N-NO22.5 25 0 min 0 lux 0,00 min 3,8 C -7,3 C
13.04.2010 04:40 4,5 C 95 % 1015 hPa 0,0 l/m 23,0 km/h (4 Bft) NO67.5 35 0 min 0 lux 0,00 min 3,8 C -4,9 C
13.04.2010 04:56 4,4 C 95 % 1015 hPa 0,0 l/m 18,3 km/h (3 Bft) NO22.5 45 0 min 0 lux 0,00 min 3,7 C -3,2 C
13.04.2010 05:11 4,3 C 95 % 1015 hPa 0,0 l/m 19,1 km/h (3 Bft) N-NO22.5 30 0 min 0 lux 0,00 min 3,6 C -3,7 C
13.04.2010 05:26 4,3 C 95 % 1015 hPa 0,0 l/m 21,0 km/h (4 Bft) N-NO22.5 25 0 min 0 lux 0,00 min 3,6 C -4,5 C
13.04.2010 05:41 4,3 C 96 % 1015 hPa 0,0 l/m 25,0 km/h (4 Bft) N-NO45 30 0 min 0 lux 0,00 min 3,7 C -5,9 C
13.04.2010 05:56 4,3 C 96 % 1015 hPa 0,0 l/m 22,6 km/h (4 Bft) N-NO22.5 30 0 min 0 lux 0,00 min 3,7 C -5,1 C
13.04.2010 06:11 4,1 C 95 % 1015 hPa 0,0 l/m 20,5 km/h (4 Bft) N-NO22.5 30 0 min 0 lux 0,00 min 3,4 C -4,5 C
13.04.2010 06:26 4,1 C 96 % 1015 hPa 0,0 l/m 18,1 km/h (3 Bft) NO22.5 40 0 min 0 lux 0,00 min 3,5 C -3,5 C
13.04.2010 06:41 4,1 C 96 % 1015 hPa 0,0 l/m 18,7 km/h (3 Bft) N-NO22.5 30 0 min 267 lux 0,00 min 3,5 C -3,8 C
13.04.2010 06:56 3,9 C 95 % 1015 hPa 0,0 l/m 16,3 km/h (3 Bft) N-NO45 30 0 min 1,05 klux 0,00 min 3,2 C -2,9 C
13.04.2010 07:11 3,6 C 95 % 1015 hPa 0,0 l/m 14,8 km/h (3 Bft) NO22.5 35 0 min 2,48 klux 0,00 min 2,9 C -2,5 C
13.04.2010 07:26 3,6 C 96 % 1015 hPa 0,0 l/m 17,8 km/h (3 Bft) NO22.5 35 0 min 6,25 klux 0,00 min 3,0 C -4,0 C
13.04.2010 07:41 3,7 C 96 % 1014 hPa 0,0 l/m 21,1 km/h (4 Bft) NO45 35 0 min 9,1 klux 0,00 min 3,1 C -5,3 C
13.04.2010 07:56 3,9 C 96 % 1014 hPa 0,0 l/m 16,6 km/h (3 Bft) NO22.5 35 0 min 13,6 klux 0,00 min 3,3 C -3,1 C
13.04.2010 08:11 4,4 C 95 % 1014 hPa 0,0 l/m 18,7 km/h (3 Bft) NO22.5 40 0 min 17,3 klux 0,00 min 3,7 C -3,4 C
13.04.2010 08:26 4,8 C 93 % 1014 hPa 0,0 l/m 25,3 km/h (4 Bft) NO22.5 45 0 min 20,7 klux 0,00 min 3,8 C -5,3 C
13.04.2010 08:41 5,4 C 93 % 1014 hPa 0,0 l/m 23,1 km/h (4 Bft) NO22.5 45 0 min 27,1 klux 0,00 min 4,4 C -3,8 C
13.04.2010 08:56 5,8 C 90 % 1014 hPa 0,0 l/m 25,0 km/h (4 Bft) NO22.5 35 0 min 29,5 klux 0,00 min 4,3 C -3,9 C
13.04.2010 09:11 6,4 C 88 % 1015 hPa 0,0 l/m 31,5 km/h (5 Bft) N-NO22.5 30 0 min 34,3 klux 0,00 min 4,6 C -4,8 C
13.04.2010 09:26 6,8 C 87 % 1015 hPa 0,0 l/m 28,6 km/h (4 Bft) N-NO22.5 25 0 min 38,3 klux 0,00 min 4,8 C -3,5 C
13.04.2010 09:41 7,3 C 83 % 1015 hPa 0,0 l/m 30,2 km/h (5 Bft) N-NO45 25 0 min 42,2 klux 0,00 min 4,6 C -3,2 C
13.04.2010 09:56 7,6 C 83 % 1015 hPa 0,0 l/m 33,1 km/h (5 Bft) N-NO22.5 25 0 min 46,2 klux 0,00 min 4,9 C -3,4 C
13.04.2010 10:11 8,0 C 81 % 1015 hPa 0,0 l/m 29,6 km/h (5 Bft) N-NO22.5 15 15 min 50,9 klux 0,00 min 4,9 C -2,1 C
13.04.2010 10:26 8,7 C 75 % 1015 hPa 0,0 l/m 35,6 km/h (5 Bft) NO45 40 15 min 54,0 klux 0,00 min 4,5 C -2,3 C
13.04.2010 10:40 9,1 C 76 % 1015 hPa 0,0 l/m 34,0 km/h (5 Bft) N-NO22.5 25 14 min 56,3 klux 0,00 min 5,1 C -1,4 C
13.04.2010 10:55 9,4 C 75 % 1015 hPa 0,0 l/m 31,6 km/h (5 Bft) N-NO22.5 30 15 min 59,9 klux 0,00 min 5,2 C -0,5 C
13.04.2010 11:10 9,7 C 74 % 1015 hPa 0,0 l/m 32,2 km/h (5 Bft) N-NO22.5 30 15 min 62,3 klux 0,00 min 5,3 C -0,2 C
13.04.2010 11:25 9,9 C 72 % 1015 hPa 0,0 l/m 30,9 km/h (5 Bft) N-NO45 25 15 min 64,9 klux 0,00 min 5,1 C 0,3 C
13.04.2010 11:40 10,5 C 71 % 1015 hPa 0,0 l/m 31,0 km/h (5 Bft) NO45 45 15 min 67,3 klux 0,00 min 5,5 C 1,2 C
13.04.2010 11:55 10,8 C 69 % 1015 hPa 0,0 l/m 35,0 km/h (5 Bft) NO45 35 15 min 70,4 klux 0,00 min 5,3 C 0,8 C
13.04.2010 12:10 10,7 C 69 % 1015 hPa 0,0 l/m 38,7 km/h (5 Bft) NO22.5 35 15 min 72,7 klux 0,00 min 5,2 C 0,1 C
13.04.2010 12:25 10,9 C 69 % 1015 hPa 0,0 l/m 37,0 km/h (5 Bft) NO22.5 35 15 min 83,3 klux 0,00 min 5,4 C 0,7 C
13.04.2010 12:40 10,8 C 68 % 1015 hPa 0,0 l/m 41,3 km/h (6 Bft) N-NO22.5 30 15 min 78,8 klux 0,00 min 5,1 C -0,1 C
13.04.2010 12:55 11,0 C 69 % 1015 hPa 0,0 l/m 36,9 km/h (5 Bft) N-NO22.5 30 15 min 78,8 klux 0,00 min 5,5 C 0,8 C
13.04.2010 13:10 11,0 C 68 % 1015 hPa 0,0 l/m 34,3 km/h (5 Bft) N22.5 10 15 min 79,3 klux 0,00 min 5,3 C 1,3 C
13.04.2010 13:25 10,8 C 68 % 1015 hPa 0,0 l/m 38,8 km/h (5 Bft) N-NO22.5 20 15 min 79,0 klux 0,00 min 5,1 C 0,3 C
13.04.2010 13:40 10,8 C 68 % 1014 hPa 0,0 l/m 39,6 km/h (6 Bft) N-NO45 30 15 min 76,3 klux 0,00 min 5,1 C 0,1 C
13.04.2010 13:55 11,6 C 65 % 1014 hPa 0,0 l/m 40,0 km/h (6 Bft) N-NO45 25 15 min 93,4 klux 0,00 min 5,2 C 1,3 C
13.04.2010 14:10 11,7 C 66 % 1014 hPa 0,0 l/m 41,1 km/h (6 Bft) NO22.5 35 15 min 90,9 klux 0,00 min 5,6 C 1,3 C
13.04.2010 14:25 11,8 C 63 % 1014 hPa 0,0 l/m 40,5 km/h (6 Bft) N-NO22.5 30 15 min 62,1 klux 0,00 min 5,0 C 1,5 C
13.04.2010 14:40 12,4 C 61 % 1014 hPa 0,0 l/m 40,5 km/h (6 Bft) N-NO22.5 30 15 min 84,4 klux 0,00 min 5,1 C 2,4 C
13.04.2010 14:55 12,3 C 60 % 1014 hPa 0,0 l/m 37,9 km/h (5 Bft) N-NO22.5 15 15 min 79,1 klux 0,00 min 4,8 C 2,6 C
13.04.2010 15:10 12,1 C 61 % 1014 hPa 0,0 l/m 32,4 km/h (5 Bft) N-NO67.5 15 15 min 80,4 klux 0,00 min 4,8 C 3,2 C
13.04.2010 15:25 11,9 C 61 % 1014 hPa 0,0 l/m 34,7 km/h (5 Bft) N-NO67.5 30 0 min 47,7 klux 0,00 min 4,6 C 2,5 C
13.04.2010 15:40 11,7 C 62 % 1014 hPa 0,0 l/m 32,0 km/h (5 Bft) N-NO22.5 15 0 min 28,3 klux 0,00 min 4,7 C 2,7 C
13.04.2010 15:55 12,0 C 62 % 1014 hPa 0,0 l/m 24,8 km/h (4 Bft) N-NO22.5 20 15 min 63,7 klux 0,00 min 4,9 C 4,6 C
13.04.2010 16:10 11,6 C 63 % 1013 hPa 0,0 l/m 32,2 km/h (5 Bft) N-NO22.5 20 0 min 24,5 klux 0,00 min 4,8 C 2,5 C
13.04.2010 16:25 12,2 C 61 % 1014 hPa 0,0 l/m 24,5 km/h (4 Bft) N-NO45 20 15 min 65,5 klux 0,00 min 4,9 C 4,9 C
13.04.2010 16:40 11,4 C 63 % 1014 hPa 0,0 l/m 33,3 km/h (5 Bft) N-NO67.5 15 0 min 22,6 klux 0,00 min 4,6 C 2,0 C
13.04.2010 16:55 10,5 C 67 % 1014 hPa 0,0 l/m 25,1 km/h (4 Bft) N67.5 10 0 min 20,0 klux 0,00 min 4,6 C 2,5 C
13.04.2010 17:10 10,3 C 70 % 1014 hPa 0,0 l/m 24,2 km/h (4 Bft) N-NO45 20 0 min 26,7 klux 0,00 min 5,1 C 2,4 C
13.04.2010 17:25 10,3 C 69 % 1014 hPa 0,0 l/m 31,0 km/h (5 Bft) N-NO22.5 25 0 min 24,4 klux 0,00 min 4,9 C 0,9 C
13.04.2010 17:40 10,1 C 72 % 1014 hPa 0,0 l/m 29,5 km/h (5 Bft) N-NO45 25 0 min 19,2 klux 0,00 min 5,3 C 0,9 C
13.04.2010 17:55 10,1 C 72 % 1013 hPa 0,0 l/m 22,6 km/h (4 Bft) N-NO45 15 0 min 18,6 klux 0,00 min 5,3 C 2,6 C
13.04.2010 18:10 10,4 C 70 % 1013 hPa 0,0 l/m 21,8 km/h (4 Bft) N-NO22.5 15 0 min 30,8 klux 0,00 min 5,2 C 3,3 C
13.04.2010 18:25 10,4 C 70 % 1013 hPa 0,0 l/m 22,1 km/h (4 Bft) N-NO67.5 20 0 min 25,4 klux 0,00 min 5,2 C 3,2 C
13.04.2010 18:40 10,4 C 69 % 1013 hPa 0,0 l/m 21,3 km/h (4 Bft) N-NO45 15 0 min 22,1 klux 0,00 min 5,0 C 3,4 C
13.04.2010 18:55 10,4 C 69 % 1013 hPa 0,0 l/m 19,3 km/h (3 Bft) N-NO22.5 25 0 min 12,6 klux 0,00 min 5,0 C 4,0 C
13.04.2010 19:10 10,4 C 68 % 1013 hPa 0,0 l/m 22,7 km/h (4 Bft) N-NO45 20 0 min 11,5 klux 0,00 min 4,8 C 3,0 C
13.04.2010 19:25 10,1 C 69 % 1013 hPa 0,0 l/m 17,0 km/h (3 Bft) N-NO22.5 25 0 min 5,72 klux 0,00 min 4,7 C 4,5 C
13.04.2010 19:40 9,8 C 69 % 1013 hPa 0,0 l/m 19,2 km/h (3 Bft) NO22.5 35 0 min 3,82 klux 0,00 min 4,4 C 3,3 C
13.04.2010 19:55 9,5 C 70 % 1013 hPa 0,0 l/m 18,6 km/h (3 Bft) N-NO22.5 30 0 min 2,33 klux 0,00 min 4,3 C 3,1 C
13.04.2010 20:10 9,1 C 71 % 1013 hPa 0,0 l/m 24,0 km/h (4 Bft) N-NO 25 0 min 970 lux 0,00 min 4,1 C 0,9 C
13.04.2010 20:25 8,9 C 70 % 1013 hPa 0,0 l/m 22,0 km/h (4 Bft) N-NO45 25 0 min 347 lux 0,00 min 3,7 C 1,2 C
13.04.2010 20:40 8,6 C 70 % 1013 hPa 0,0 l/m 17,5 km/h (3 Bft) NO22.5 35 0 min 157 lux 0,00 min 3,4 C 2,4 C
13.04.2010 20:55 8,3 C 71 % 1013 hPa 0,0 l/m 18,6 km/h (3 Bft) N-NO22.5 25 0 min 22 lux 0,00 min 3,4 C 1,6 C
13.04.2010 21:10 7,9 C 72 % 1014 hPa 0,0 l/m 11,0 km/h (2 Bft) N-NO 20 0 min 1 lux 0,00 min 3,2 C 4,7 C
13.04.2010 21:25 7,8 C 72 % 1014 hPa 0,0 l/m 12,0 km/h (2 Bft) N 5 0 min 0 lux 0,00 min 3,1 C 4,0 C
13.04.2010 21:40 7,7 C 72 % 1014 hPa 0,0 l/m 12,1 km/h (2 Bft) N22.5 10 0 min 0 lux 0,00 min 3,0 C 3,8 C
13.04.2010 21:55 7,5 C 73 % 1014 hPa 0,0 l/m 12,5 km/h (3 Bft) N22.5 10 0 min 0 lux 0,00 min 3,0 C 3,4 C
13.04.2010 22:10 7,3 C 73 % 1014 hPa 0,0 l/m 14,5 km/h (3 Bft) N67.5 10 0 min 0 lux 0,00 min 2,8 C 2,1 C
13.04.2010 22:25 7,0 C 73 % 1014 hPa 0,0 l/m 16,2 km/h (3 Bft) N-NO22.5 15 0 min 0 lux 0,00 min 2,5 C 0,9 C
13.04.2010 22:40 6,9 C 73 % 1014 hPa 0,0 l/m 15,5 km/h (3 Bft) N-NO22.5 20 0 min 0 lux 0,00 min 2,4 C 1,1 C
13.04.2010 22:55 6,8 C 73 % 1014 hPa 0,0 l/m 18,0 km/h (3 Bft) N-NO22.5 20 0 min 0 lux 0,00 min 2,3 C -0,1 C
13.04.2010 23:10 6,6 C 73 % 1014 hPa 0,0 l/m 15,3 km/h (3 Bft) N-NO22.5 30 0 min 0 lux 0,00 min 2,1 C 0,9 C
13.04.2010 23:25 6,5 C 73 % 1014 hPa 0,0 l/m 17,0 km/h (3 Bft) N-NO22.5 25 0 min 0 lux 0,00 min 2,0 C -0,0 C
13.04.2010 23:40 6,7 C 71 % 1014 hPa 0,0 l/m 25,9 km/h (4 Bft) N-NO22.5 30 0 min 0 lux 0,00 min 1,8 C -2,9 C
13.04.2010 23:55 6,7 C 71 % 1014 hPa 0,0 l/m 20,2 km/h (4 Bft) NO45 35 0 min 0 lux 0,00 min 1,8 C -1,1 C
_ Min-Zeit 07:11 14:55 16:10 - 21:10 - - - - - 23:40 03:25
Minimum _ 3,6 C 60 % 1013 hPa - 11,0 km/h (2 Bft) - - - - - 1,8 C -7,5 C
_ Max-Zeit 14:40 05:41 00:10 02:40 12:40 - - 10:11 13:55 02:40 14:10 16:25
Maximum _ 12,4 C 96 % 1016 hPa 0,3 l/m 41,3 km/h
N-NO (6 Bft)
- - 15 min 93,4 klux 15,00 min 5,6 C 4,9 C
Durchschnitt _ 7,6 C 79 % 1015 hPa #0,3 l/m 25,6 km/h (4 Bft) N-NO - #5:44 h 23,9 klux #15 min. 4,1 C -1,1 C